OPS 4682 DEB, 19242

Orbit data source: Space-Track

OPS 4682 DEB, 19242 is space debris in LEO originally from a launch on Sat, 03 Apr 1965 UTC launched from the Air Force Western Test Range (AFWTR). Debris objects in space refer to the collection of defunct objects orbiting the Earth. Examples of debris include non-operational satellites, rocket bodies, and fragments generated from explosions, collisions, or faulty payload assembly.

Loading next visibility...
Identifier
19242, 1965-027AS
Orbit
LEO
Country
Flag of USUS
Related business
Manufacturer
Unknown
Mission
Spacecraft
Bus & Motor
Unknown
Mass
Unknown
Launch date (UTC)
1965-04-03 (61 years ago)
Launch vehicle
Unknown
Launch site
Air Force Western Test Range (AFWTR)
Object type
Payload
Rocket body
Debris
Shape & HBR
Unknown shape, 0.1 m
Radar Cross Section
Small (<0.1 m²)

Expand to show TLE details & history
Last TLE update: 2 days ago

TLE from 2 days ago
0 OPS 4682 DEB
1 19242U 65027AS  25291.49695940  .00000145  00000-0  44563-3 0  9998
2 19242  90.2641  20.2387 0028356  36.1881 342.8907 13.01636693605883
Epoch: 2025-10-18T11:55Z
TLE epoch observation values (Epoch: 2025-10-18T11:55:37.292Z)
Latitude
18.97845°
Longitude
174.01582°
Altitude
1,237.404 km
Speed
7.247 km/s
True Right ascension
01h 20m 35s
True Declination
18° 52' 47"
Sunlit
Object was in full shadow at epoch
Visualization orbit readout
Latitude
Unknown
Longitude
Unknown
Altitude
Unknown
Speed
Unknown
Apparent Right ascension
Unknown
Apparent Declination
Unknown
Sunlit
N/A
Visualization observer readout
Local Sidereal Time
14:52:14
Azimuth
Unknown
Elevation
Unknown
Doppler factor
Unknown
Orbital elements
Apogee altitude
1,274.444 km
Perigee altitude
1,231.167 km
Semi-major axis
7,630.942 km
Eccentricity
0.00284
Inclination
90.2641°
RAAN
20.2387°
Arg. of periapsis
36.1881°
True anomaly
342.79478°
Mean anomaly
342.8907°
Eccentric anomaly
342.84277°
Mean motion
3.25594 °/min
Orbital period
110.57 mins
BSTAR
0.00044563
Loading maneuver chart data...
Computing Atmospheric mass density...
Loading historical data...
Loading historical data...
Loading historical data...
Loading historical data...
Loading historical data...
Loading historical data...
Loading historical data...

Documentation

Showing up to 5 results
|